Regional Weather Roundup
Issued by NWS

Home | Current Version | Previous Version | Text Only | Print | Product List | Glossary Off
Versions: 1 2 3 4 5 6 7 8 9 10 11 12 13 14 15 16 17 18 19 20 21 22 23 24 25 26 27 28 29 30 31 32 33 34 35 36 37 38 39 40 41 42 43 44 45 46 47 48 49 50

000
ASUS43 KMKX 030100
RWRWI

WISCONSIN REGIONAL WEATHER ROUNDUP
NATIONAL WEATHER SERVICE MILWAUKEE/SULLIVAN WI
800 PM CDT SUN AUG 02 2015

NOTE: "FAIR" INDICATES FEW OR NO CLOUDS BELOW 12,000 FEET WITH NO
SIGNIFICANT WEATHER AND/OR OBSTRUCTIONS TO VISIBILITY.

WIZ001-002-006>008-014>016-023>028-030200-
NORTHWEST WISCONSIN

CITY           SKY/WX    TMP DP  RH WIND       PRES   REMARKS
SUPERIOR ARPT  CLEAR     71  49  45 NW10      29.72R
ASHLAND        PTCLDY    69  55  60 NW7       29.70R
HAYWARD        PTCLDY    73  54  51 VRB5      29.72R
SIREN          CLEAR     73  50  43 NW15G21   29.74R
CUMBERLAND     CLEAR     72  52  49 NW16      29.73R
RICE LAKE      CLEAR     73  51  46 NW10      29.74R
CHETEK         CLEAR     74  56  53 W8        29.71R
LADYSMITH      PTCLDY    74  56  54 NW10G22   29.72R
EAU CLAIRE     NOT AVBL
MENOMONIE      CLEAR     78  55  46 W10       29.71R
NEW RICHMOND   PTCLDY    73  57  56 NW9       29.74R
OSCEOLA        PTCLDY    75  57  53 NW9       29.76R
$$

WIZ003>005-009-010-017-018-030200-
NORTH CENTRAL WISCONSIN

CITY           SKY/WX    TMP DP  RH WIND       PRES   REMARKS
MANITOWISH WTR PTCLDY    66  60  83 NW7       29.69S
ARBOR VITAE    PTCLDY    65  59  80 NW7       29.69S
WOODRUFF       PTCLDY    65  59  80 NW7       29.69S
RHINELANDER    MOCLDY    64  58  80 NW5       29.71R
EAGLE RIVER    MOCLDY    69  52  54 NW8       29.68R
LAND O LAKES   MOCLDY    68  53  57 NW6       29.69S
PHILLIPS       PTCLDY    68  56  65 N6        29.70R
TOMAHAWK       MOCLDY    69  56  63 NW9G17    29.69R
MEDFORD        CLEAR     72  57  59 NW14      29.69R
MERRILL        NOT AVBL
$$

WIZ029-030-035-036-043>047-030200-
CENTRAL WISCONSIN

CITY           SKY/WX    TMP DP  RH WIND       PRES   REMARKS
WAUSAU         PTCLDY    75  59  57 NW10      29.66R
MOSINEE        PTCLDY    73  59  60 NW8       29.69R
MARSHFIELD     CLEAR     74  58  57 NW10      29.69R
STEVENS POINT  MOCLDY    74  61  62 NW8       29.67R
WAUPACA        CLEAR     76  64  64 NW5       29.65R
WAUTOMA        NOT AVBL
WISC RAPIDS    CLEAR     77  57  50 NW10      29.68R
CAMP DOUGLAS   NOT AVBL
$$

WIZ011>013-019>022-031-037>040-048>050-030200-
NORTHEAST WISCONSIN

CITY           SKY/WX    TMP DP  RH WIND       PRES   REMARKS
ANTIGO         CLEAR     69  58  68 NW8       29.68R
SHAWANO        MOCLDY    69  64  82 CALM      29.64R
OCONTO         MOCLDY    65  65 100 CALM      29.61S
STURGEON BAY   CLOUDY    63  59  88 W5        29.65R
GREEN BAY      MOCLDY    67  65  93 CALM      29.63R
MANITOWOC      NOT AVBL
APPLETON       PTCLDY    70  55  60 N6        29.65R
CLINTONVILLE   MOCLDY    68  61  77 CALM      29.65R
OSHKOSH        CLOUDY    73  61  65 N5        29.66R
$$

WIZ032>034-041-042-053>061-030200-
SOUTHWEST WISCONSIN

CITY           SKY/WX    TMP DP  RH WIND       PRES   REMARKS
LA CROSSE      CLEAR     80  62  54 NW10      29.68R HX  81
SPARTA         CLEAR     80  57  44 NW12G18   29.69R HX  81
VIROQUA        PTCLDY    79  64  60 NW10G21   29.70R HX  80
BOSCOBEL       CLEAR     84  64  50 NW6       29.67R HX  85
PRAIRIE DU CHI CLEAR     85  59  41 W12G17    29.67R HX  84
PLATTEVILLE    CLEAR     84  69  61 W12G18    29.68R HX  88
$$

WIZ056-057-062-063-064-067-068-030200-
SOUTH CENTRAL WISCONSIN

CITY           SKY/WX    TMP DP  RH WIND       PRES   REMARKS
REEDSBURG      CLEAR     82  63  51 NW13G22   29.66R HX  83
BARABOO/DELLS  PTCLDY    82  60  46 NW15G21   29.66R HX  82
LONE ROCK      NOT AVBL
MINERAL POINT  CLEAR     84  57  39 W12G18    29.68R HX  83
MADISON        PTCLDY    84  58  40 NW10G18   29.63R HX  83
MIDDLETON      PTCLDY    85  56  37 NW10G17   29.65R HX  84
WATERTOWN      MOCLDY    85  64  47 NW17G24   29.60R HX  86
MONROE         CLEAR     86  68  54 W22G29    29.66S HX  89
JANESVILLE     PTCLDY    86  73  66 SW13G20   29.63R HX  93
$$

WIZ051-052-058>065-066-070>072-030200-
SOUTHEAST WISCONSIN

CITY           SKY/WX    TMP DP  RH WIND       PRES   REMARKS
MILWAUKEE      TSTM      82  66  58 NE20G29   29.59R HX  84
WAUKESHA       LGT RAIN  82  70  65 NW18G33   29.60R HX  86
MILWAUKEE/TIMM HVY RAIN  72  63  73 N15G25    29.60R
RACINE         CLOUDY    86  70  58 SW21G30   29.59F HX  90
BURLINGTON     MOCLDY    83  69  62 SW17G26   29.60F HX  87
KENOSHA        MOCLDY    85  71  63 SW22G28   29.60S HX  90
FOND DU LAC    MOCLDY    71  63  75 N9        29.66R
SHEBOYGAN      CLOUDY    68  65  90 N3        29.65R
WEST BEND      LGT RAIN  68  63  83 N14G23    29.63R
JUNEAU         MOCLDY    72  65  77 N17       29.65R
$$

LSZ147-162-030200-
LAKE SUPERIOR

STATION/POSITION TIME  TEMP    WIND        PRES    WAVE
                       AIR SEA DIR/SP/G            HT/PER
                 (UTC) (F)     (DEG/KT/KT) (MB)    (FT/S)
W MID LAKE BUOY  2350   60 56  270/ 10/ 12 1002.9R   1/ 3
DEVILS ISLAND    0000   64     310/ 14/ 16 1004.2R
PORT WING        0000   67     290/  8/ 11 1005.4R
SAXON HARBOR     0000   72                 1004.4
$$

LMZ867-665-643>646-030200-
LAKE MICHIGAN

STATION/POSITION TIME  TEMP    WIND        PRES    WAVE
                       AIR SEA DIR/SP/G            HT/PER
                 (UTC) (F)     (DEG/KT/KT) (MB)    (FT/S)
CHAMBERS ISLAND  0000   68     220/  2/  6 1002.7R
S GREEN BAY BUOY 0000   65 70  320/  4/  6 1004.3R
N MID LAKE BUOY  2350   67 68  270/  6/  8 1001.8R   2/ 5
NORTHPORT PIER   0000   65     260/  3/  4 1002.7R
ALGOMA LAKESHORE 0012          310/  7/ 10   N/A
KEWAUNEE LAKESHO 0000   64     290/  6/  8 1002.1R
SHEBOYGAN LAKESH 0000   65     310/  5/  6 1002.8R
PORT WASHINGTON  0020   67     330/  3     1003.0R
ATWATER BUOY     0000   78 45  220/ 14/ 16 1002.5F
MILWAUKEE LAKESH 0000   86     240/ 20/ 31   N/A
KENOSHA   LAKESH 0000   88     230/ 20/ 34 1002.0S
$$

TC  - TEMPERATURE IN CELSIUS
VSB - VISIBILITY IN STATUTE MILES
WCI - WIND CHILL INDEX
HX  - HEAT INDEX




USA.gov is the U.S. government's official web portal to all federal, state and local government web resources and services.